SL-12 R/B(AUX MOTOR), 15335

Orbit data source: Space-Track

SL-12 R/B(AUX MOTOR), 15335 is space debris in LEO originally from a launch on Fri, 28 Sep 1984 UTC launched from the Tyuratam Missile And Space Complex (TTMTR). Debris objects in space refer to the collection of defunct objects orbiting the Earth. Examples of debris include non-operational satellites, rocket bodies, and fragments generated from explosions, collisions, or faulty payload assembly.

Loading next visibility...
Identifier
15335, 1984-106C
Orbit
LEO
Country
Flag of CISCIS
Related business
Manufacturer
NPO Energiya
Mission
Spacecraft
Bus & Motor
SOZ, Unknown motor
Mass
110 kg wet, 56 kg dry
Launch date (UTC)
1984-09-28 (42 years ago)
Launch vehicle
Unknown
Launch site
Tyuratam Missile And Space Complex (TTMTR)
Object type
Payload
Rocket body
Debris
Shape & HBR
Unknown
Radar Cross Section
Medium (>0.1 m² and <1 m²)

Expand to show TLE details & history
Last TLE update: 8 hours ago

TLE from 8 hours ago
0 SL-12 R/B(AUX MOTOR)
1 15335U 84106C   26095.28542936  .00000195  00000-0  12401-3 0  9993
2 15335  66.5526 178.6216 0021712 274.6533 149.9728 14.23124651153775
Epoch: 2026-04-05T06:51Z
TLE epoch observation values (Epoch: 2026-04-05T06:51:01.096Z)
Latitude
56.19426°
Longitude
-77.61119°
Altitude
836.848 km
Speed
7.433 km/s
True Right ascension
14h 34m 56s
True Declination
56° 02' 13"
Sunlit
Object was in daylight at epoch
Visualization orbit readout
Latitude
Unknown
Longitude
Unknown
Altitude
Unknown
Speed
Unknown
Apparent Right ascension
Unknown
Apparent Declination
Unknown
Sunlit
N/A
Visualization observer readout
Local Sidereal Time
21:15:22
Azimuth
Unknown
Elevation
Unknown
Doppler factor
Unknown
Orbital elements
Apogee altitude
828.816 km
Perigee altitude
797.588 km
Semi-major axis
7,191.339 km
Eccentricity
0.00217
Inclination
66.5526°
RAAN
178.6216°
Arg. of periapsis
274.6533°
True anomaly
150.09701°
Mean anomaly
149.9728°
Eccentric anomaly
150.03493°
Mean motion
3.559 °/min
Orbital period
101.15 mins
BSTAR
0.00012401
Loading maneuver chart data...
Computing Atmospheric mass density...
Loading historical data...
Loading historical data...
Loading historical data...
Loading historical data...
Loading historical data...
Loading historical data...
Loading historical data...

Documentation

Showing up to 5 results
|